When you browse on this site, cookies collect data to enhance your experience and personalize the content and advertising you see.
Visit our Privacy Policy to learn more. By continuing to use the site, you agree to this use of cookies and data.
  • In United Kingdom
  • List of Countries
  • For 7 days
  • Water Temperature
  • Weather Map
  • Weather Widgets
  • user-avatar
    Login

    Hourly Weather Codlea

    Today, 14 November, Thursday

    Time Temperature Precipitation Wind Pressure Humidity
    00:00 +11°C° 0 mm 3 mps 696 mmHg 85%
    01:00 +11°C° 0 mm 3 mps 696 mmHg 85%
    02:00 +10°C° 0 mm 3 mps 696 mmHg 89%
    03:00 +10°C° 0 mm 2 mps 696 mmHg 89%
    04:00 +10°C° 0 mm 2 mps 695 mmHg 89%
    05:00 +10°C° 0 mm 2 mps 695 mmHg 89%
    06:00 +10°C° 0.1 mm 2 mps 696 mmHg 87%
    07:00 +12°C° 0.1 mm 2 mps 696 mmHg 85%
    08:00 +12°C° 0.1 mm 2 mps 696 mmHg 83%
    09:00 +13°C° 0 mm 2 mps 696 mmHg 76%
    10:00 +14°C° 0 mm 2 mps 697 mmHg 69%
    11:00 +16°C° 0 mm 2 mps 697 mmHg 63%
    12:00 +16°C° 0 mm 2 mps 697 mmHg 60%
    13:00 +18°C° 0 mm 1 mps 697 mmHg 58%
    14:00 +18°C° 0 mm 1 mps 697 mmHg 56%
    15:00 +16°C° 0 mm 1 mps 697 mmHg 60%
    16:00 +15°C° 0 mm 1 mps 696 mmHg 64%
    17:00 +13°C° 0 mm 1 mps 696 mmHg 67%
    18:00 +13°C° 0 mm 2 mps 696 mmHg 70%
    19:00 +12°C° 0 mm 2 mps 696 mmHg 73%
    20:00 +12°C° 0 mm 2 mps 696 mmHg 75%
    21:00 +10°C° 0.1 mm 2 mps 696 mmHg 77%
    22:00 +11°C° 0.1 mm 1 mps 696 mmHg 79%
    23:00 +11°C° 0.1 mm 1 mps 696 mmHg 80%

    Tomorrow, 15 November, Friday

    Time Temperature Precipitation Wind Pressure Humidity
    00:00 +11°C° 0.6 mm 1 mps 696 mmHg 83%
    01:00 +11°C° 0.6 mm 1 mps 696 mmHg 85%
    02:00 +11°C° 0.6 mm 1 mps 696 mmHg 88%
    03:00 +11°C° 1 mm 1 mps 696 mmHg 89%
    04:00 +10°C° 1 mm 1 mps 696 mmHg 91%
    05:00 +10°C° 1 mm 1 mps 697 mmHg 92%
    06:00 +10°C° 0.7 mm 1 mps 697 mmHg 93%
    07:00 +9°C° 0.7 mm 0 mps 697 mmHg 93%
    08:00 +9°C° 0.7 mm 0 mps 697 mmHg 94%
    09:00 +11°C° 0.2 mm 1 mps 698 mmHg 89%
    10:00 +12°C° 0.2 mm 1 mps 698 mmHg 85%
    11:00 +13°C° 0.2 mm 1 mps 698 mmHg 80%
    12:00 +13°C° 0 mm 1 mps 699 mmHg 77%
    13:00 +14°C° 0 mm 1 mps 699 mmHg 74%
    14:00 +15°C° 0 mm 2 mps 699 mmHg 71%
    15:00 +14°C° 0 mm 1 mps 699 mmHg 76%
    16:00 +13°C° 0 mm 1 mps 699 mmHg 80%
    17:00 +12°C° 0 mm 1 mps 699 mmHg 85%
    18:00 +11°C° 0 mm 1 mps 699 mmHg 86%
    19:00 +10°C° 0 mm 1 mps 700 mmHg 86%
    20:00 +10°C° 0 mm 1 mps 700 mmHg 87%
    21:00 +9°C° 0 mm 2 mps 700 mmHg 87%
    22:00 +8°C° 0 mm 2 mps 700 mmHg 86%
    23:00 +8°C° 0 mm 2 mps 700 mmHg 86%

    Day after tomorrow, 16 November, Saturday

    Time Temperature Precipitation Wind Pressure Humidity
    00:00 +8°C° 0 mm 2 mps 700 mmHg 85%
    01:00 +9°C° 0 mm 1 mps 701 mmHg 85%
    02:00 +9°C° 0 mm 1 mps 701 mmHg 84%
    03:00 +8°C° 0 mm 1 mps 701 mmHg 84%
    04:00 +8°C° 0 mm 1 mps 701 mmHg 83%
    05:00 +8°C° 0 mm 1 mps 701 mmHg 83%
    06:00 +8°C° 0 mm 1 mps 701 mmHg 82%
    07:00 +8°C° 0 mm 1 mps 701 mmHg 80%
    08:00 +8°C° 0 mm 1 mps 702 mmHg 79%
    09:00 +11°C° 0 mm 1 mps 702 mmHg 71%
    10:00 +13°C° 0 mm 1 mps 702 mmHg 64%
    11:00 +15°C° 0 mm 1 mps 703 mmHg 56%
    12:00 +15°C° 0 mm 1 mps 703 mmHg 54%
    13:00 +16°C° 0 mm 1 mps 703 mmHg 52%
    14:00 +18°C° 0 mm 1 mps 703 mmHg 50%
    15:00 +15°C° 0 mm 1 mps 702 mmHg 55%
    16:00 +14°C° 0 mm 1 mps 702 mmHg 61%
    17:00 +12°C° 0 mm 1 mps 702 mmHg 66%
    18:00 +12°C° 0 mm 1 mps 702 mmHg 66%
    19:00 +10°C° 0 mm 2 mps 702 mmHg 66%
    20:00 +10°C° 0 mm 2 mps 702 mmHg 66%
    21:00 +9°C° 0 mm 2 mps 702 mmHg 68%
    22:00 +9°C° 0 mm 2 mps 702 mmHg 70%
    23:00 +9°C° 0 mm 2 mps 702 mmHg 72%

    17 November, Sunday

    Time Temperature Precipitation Wind Pressure Humidity
    00:00 +9°C° 0 mm 2 mps 702 mmHg 74%
    01:00 +9°C° 0 mm 2 mps 702 mmHg 76%
    02:00 +8°C° 0 mm 2 mps 702 mmHg 77%
    03:00 +8°C° 0 mm 2 mps 702 mmHg 78%
    04:00 +8°C° 0 mm 2 mps 702 mmHg 78%
    05:00 +8°C° 0 mm 2 mps 702 mmHg 78%
    06:00 +8°C° 0 mm 2 mps 702 mmHg 78%
    07:00 +8°C° 0 mm 2 mps 702 mmHg 78%
    08:00 +8°C° 0 mm 2 mps 702 mmHg 78%
    09:00 +10°C° 0 mm 2 mps 702 mmHg 72%
    10:00 +12°C° 0 mm 3 mps 703 mmHg 66%
    11:00 +14°C° 0 mm 3 mps 703 mmHg 60%
    12:00 +16°C° 0 mm 3 mps 703 mmHg 58%
    13:00 +16°C° 0 mm 3 mps 702 mmHg 56%
    14:00 +17°C° 0 mm 3 mps 702 mmHg 54%
    15:00 +14°C° 0 mm 3 mps 702 mmHg 58%
    16:00 +13°C° 0 mm 3 mps 701 mmHg 62%
    17:00 +12°C° 0 mm 3 mps 701 mmHg 66%
    18:00 +11°C° 0 mm 3 mps 701 mmHg 67%
    19:00 +11°C° 0 mm 3 mps 701 mmHg 68%
    20:00 +10°C° 0 mm 3 mps 701 mmHg 68%
    21:00 +10°C° 0 mm 3 mps 700 mmHg 69%
    22:00 +9°C° 0 mm 2 mps 700 mmHg 70%
    23:00 +9°C° 0 mm 2 mps 700 mmHg 70%

    18 November, Monday

    Time Temperature Precipitation Wind Pressure Humidity
    00:00 +9°C° 0 mm 2 mps 700 mmHg 69%
    01:00 +9°C° 0 mm 2 mps 699 mmHg 68%
    02:00 +9°C° 0 mm 2 mps 699 mmHg 67%
    03:00 +8°C° 0 mm 2 mps 699 mmHg 67%
    04:00 +8°C° 0 mm 2 mps 699 mmHg 66%
    05:00 +8°C° 0 mm 2 mps 698 mmHg 66%
    06:00 +8°C° 0 mm 2 mps 698 mmHg 68%
    07:00 +8°C° 0 mm 2 mps 698 mmHg 70%
    08:00 +8°C° 0 mm 3 mps 698 mmHg 72%
    09:00 +10°C° 0 mm 3 mps 698 mmHg 68%
    10:00 +11°C° 0 mm 3 mps 699 mmHg 64%
    11:00 +13°C° 0 mm 3 mps 699 mmHg 60%
    12:00 +14°C° 0 mm 2 mps 699 mmHg 61%
    13:00 +14°C° 0 mm 2 mps 699 mmHg 61%
    14:00 +15°C° 0 mm 2 mps 699 mmHg 62%
    15:00 +13°C° 0 mm 2 mps 699 mmHg 68%
    16:00 +12°C° 0 mm 2 mps 699 mmHg 74%
    17:00 +10°C° 0 mm 1 mps 699 mmHg 80%
    18:00 +10°C° 0 mm 1 mps 699 mmHg 80%
    19:00 +10°C° 0 mm 1 mps 699 mmHg 80%
    20:00 +9°C° 0 mm 1 mps 699 mmHg 80%
    21:00 +9°C° 0 mm 1 mps 699 mmHg 81%
    22:00 +9°C° 0 mm 1 mps 699 mmHg 81%
    23:00 +8°C° 0 mm 1 mps 700 mmHg 82%

    19 November, Tuesday

    Time Temperature Precipitation Wind Pressure Humidity
    00:00 +8°C° 0 mm 1 mps 700 mmHg 81%
    01:00 +7°C° 0 mm 0 mps 700 mmHg 80%
    02:00 +7°C° 0 mm 0 mps 700 mmHg 80%
    03:00 +8°C° 0 mm 1 mps 700 mmHg 79%
    04:00 +8°C° 0 mm 1 mps 699 mmHg 79%
    05:00 +8°C° 0 mm 1 mps 699 mmHg 78%
    06:00 +8°C° 0 mm 1 mps 700 mmHg 78%
    07:00 +8°C° 0 mm 1 mps 700 mmHg 77%
    08:00 +8°C° 0 mm 1 mps 700 mmHg 76%
    09:00 +10°C° 0 mm 1 mps 700 mmHg 70%
    10:00 +12°C° 0 mm 1 mps 701 mmHg 64%
    11:00 +14°C° 0 mm 1 mps 701 mmHg 58%
    12:00 +14°C° 0 mm 1 mps 701 mmHg 55%
    13:00 +15°C° 0 mm 1 mps 701 mmHg 53%
    14:00 +16°C° 0 mm 1 mps 700 mmHg 50%
    15:00 +14°C° 0 mm 1 mps 700 mmHg 57%
    16:00 +13°C° 0 mm 1 mps 700 mmHg 64%
    17:00 +11°C° 0 mm 1 mps 699 mmHg 71%
    18:00 +11°C° 0 mm 1 mps 699 mmHg 73%
    19:00 +10°C° 0 mm 1 mps 700 mmHg 75%
    20:00 +9°C° 0 mm 1 mps 700 mmHg 77%
    21:00 +9°C° 0 mm 1 mps 700 mmHg 78%
    22:00 +9°C° 0 mm 1 mps 700 mmHg 79%
    23:00 +9°C° 0 mm 1 mps 700 mmHg 80%
    Show more